TimeCDT,TemperatureF,Dew PointF,Humidity,Sea Level PressureIn,VisibilityMPH,Wind Direction,Wind SpeedMPH,Gust SpeedMPH,PrecipitationIn,Events,Conditions,WindDirDegrees,DateUTC
12:14 AM,75.2,69.8,83,29.62,10.0,SSE,4.6,-,N/A,,Clear,150,2013-09-19 05:14:00
12:33 AM,73.4,69.8,88,29.64,10.0,SW,5.8,-,N/A,,Clear,220,2013-09-19 05:33:00
12:53 AM,73.4,69.8,88,29.65,10.0,Calm,Calm,-,N/A,Thunderstorm,Thunderstorm,0,2013-09-19 05:53:00
1:14 AM,73.4,69.8,88,29.67,10.0,Calm,Calm,-,N/A,,Clear,0,2013-09-19 06:14:00
1:33 AM,73.4,69.8,88,29.68,10.0,North,5.8,-,N/A,Rain-Thunderstorm,Light Thunderstorms and Rain,10,2013-09-19 06:33:00
1:53 AM,73.4,68.0,83,29.65,10.0,NNE,9.2,-,N/A,Rain-Thunderstorm,Light Thunderstorms and Rain,30,2013-09-19 06:53:00
2:14 AM,75.2,66.2,73,29.64,10.0,ENE,5.8,-,N/A,,Mostly Cloudy,60,2013-09-19 07:14:00
2:33 AM,73.4,68.0,83,29.60,10.0,East,8.1,-,N/A,,Mostly Cloudy,90,2013-09-19 07:33:00
2:54 AM,73.4,68.0,83,29.64,10.0,SSW,3.5,-,N/A,Thunderstorm,Thunderstorm,210,2013-09-19 07:54:00
3:14 AM,71.6,66.2,83,29.67,5.0,South,10.4,26.5,0.12,Rain-Thunderstorm,Heavy Thunderstorms and Rain,190,2013-09-19 08:14:00
3:33 AM,71.6,66.2,83,29.63,10.0,ESE,8.1,-,0.34,Rain-Thunderstorm,Light Thunderstorms and Rain,110,2013-09-19 08:33:00
3:53 AM,73.4,68.0,83,29.62,10.0,Calm,Calm,-,0.38,Rain-Thunderstorm,Thunderstorms and Rain,0,2013-09-19 08:53:00
4:14 AM,71.6,68.0,88,29.70,10.0,West,17.3,24.2,0.03,Rain-Thunderstorm,Thunderstorms and Rain,270,2013-09-19 09:14:00
4:33 AM,69.8,64.4,83,29.67,5.0,Calm,Calm,-,0.18,Rain-Thunderstorm,Heavy Thunderstorms and Rain,0,2013-09-19 09:33:00
4:54 AM,69.8,66.2,88,29.67,10.0,WNW,6.9,-,0.21,Rain-Thunderstorm,Light Thunderstorms and Rain,290,2013-09-19 09:54:00
5:13 AM,69.8,66.2,88,29.67,10.0,NW,4.6,-,N/A,,Overcast,310,2013-09-19 10:13:00
5:33 AM,69.8,66.2,88,29.64,2.5,NE,9.2,-,0.27,Rain-Thunderstorm,Heavy Thunderstorms and Rain,40,2013-09-19 10:33:00
5:54 AM,69.8,64.4,83,29.66,10.0,SSE,5.8,-,0.28,Rain-Thunderstorm,Light Thunderstorms and Rain,160,2013-09-19 10:54:00
6:13 AM,69.8,64.4,83,29.65,10.0,Calm,Calm,-,0.04,Rain,Rain,0,2013-09-19 11:13:00
6:33 AM,69.8,64.4,83,29.62,10.0,ESE,6.9,-,0.06,Rain,Rain,110,2013-09-19 11:33:00
6:54 AM,68.0,64.4,88,29.63,10.0,East,3.5,-,0.06,,Mostly Cloudy,100,2013-09-19 11:54:00
7:13 AM,68.0,64.4,88,29.68,10.0,WNW,9.2,-,N/A,,Mostly Cloudy,300,2013-09-19 12:13:00
7:33 AM,68.0,64.4,88,29.67,7.0,North,5.8,9.2,0.05,Rain,Rain,350,2013-09-19 12:33:00
7:54 AM,68.0,66.2,94,29.73,10.0,West,4.6,-,0.06,Rain-Thunderstorm,Thunderstorms and Rain,270,2013-09-19 12:54:00
8:13 AM,68.0,66.2,94,29.68,10.0,NW,17.3,-,0.02,Rain-Thunderstorm,Light Thunderstorms and Rain,310,2013-09-19 13:13:00
8:33 AM,69.8,64.4,83,29.74,10.0,South,4.6,-,0.06,Rain,Rain,190,2013-09-19 13:33:00
8:54 AM,69.8,64.4,83,29.77,10.0,SSW,6.9,-,0.11,Rain,Rain,200,2013-09-19 13:54:00
9:13 AM,69.8,64.4,83,29.76,5.0,NE,3.5,-,0.05,Rain,Heavy Rain,50,2013-09-19 14:13:00
9:33 AM,68.0,64.4,88,29.72,10.0,NNE,11.5,-,0.11,Rain,Rain,20,2013-09-19 14:33:00
9:54 AM,68.0,64.4,88,29.69,10.0,North,10.4,-,0.13,Rain,Light Rain,10,2013-09-19 14:54:00
10:13 AM,68.0,64.4,88,29.70,10.0,NNW,10.4,-,N/A,Rain,Light Rain,330,2013-09-19 15:13:00
10:33 AM,68.0,64.4,88,29.74,10.0,NW,12.7,16.1,N/A,,Scattered Clouds,320,2013-09-19 15:33:00
10:54 AM,68.0,64.4,88,29.76,10.0,NW,9.2,-,N/A,,Scattered Clouds,320,2013-09-19 15:54:00
11:14 AM,68.0,62.6,83,29.79,10.0,NW,11.5,-,N/A,,Clear,310,2013-09-19 16:14:00
11:33 AM,68.0,62.6,83,29.80,10.0,WNW,11.5,-,N/A,,Clear,300,2013-09-19 16:33:00
11:54 AM,68.0,60.8,78,29.79,10.0,NNW,13.8,19.6,N/A,,Clear,330,2013-09-19 16:54:00
12:14 PM,69.8,60.8,73,29.79,10.0,NNW,18.4,24.2,N/A,,Clear,330,2013-09-19 17:14:00
12:33 PM,69.8,60.8,73,29.80,10.0,NW,13.8,-,N/A,,Clear,320,2013-09-19 17:33:00
12:54 PM,69.8,60.8,73,29.81,10.0,NNW,12.7,21.9,N/A,,Clear,330,2013-09-19 17:54:00
1:13 PM,71.6,60.8,69,29.81,10.0,NNW,12.7,20.7,N/A,,Clear,330,2013-09-19 18:13:00
1:33 PM,73.4,57.2,57,29.80,10.0,NW,16.1,23.0,N/A,,Clear,320,2013-09-19 18:33:00
1:54 PM,75.2,57.2,53,29.80,10.0,NW,16.1,23.0,N/A,,Clear,310,2013-09-19 18:54:00
2:14 PM,75.2,57.2,53,29.80,10.0,NNW,15.0,-,N/A,,Clear,330,2013-09-19 19:14:00
2:33 PM,75.2,57.2,53,29.80,10.0,NNW,10.4,18.4,N/A,,Clear,340,2013-09-19 19:33:00
2:54 PM,77.0,55.4,47,29.80,10.0,NW,15.0,21.9,N/A,,Clear,320,2013-09-19 19:54:00
3:14 PM,78.8,51.8,39,29.80,10.0,WNW,17.3,21.9,N/A,,Clear,290,2013-09-19 20:14:00
3:33 PM,78.8,51.8,39,29.80,10.0,WNW,15.0,20.7,N/A,,Clear,300,2013-09-19 20:33:00
3:54 PM,78.8,50.0,36,29.79,10.0,WNW,16.1,24.2,N/A,,Clear,290,2013-09-19 20:54:00
4:14 PM,78.8,48.2,34,29.79,10.0,WNW,15.0,23.0,N/A,,Clear,300,2013-09-19 21:14:00
4:33 PM,78.8,46.4,32,29.80,10.0,WNW,16.1,21.9,N/A,,Clear,290,2013-09-19 21:33:00
4:54 PM,78.8,46.4,32,29.81,10.0,WNW,13.8,21.9,N/A,,Clear,300,2013-09-19 21:54:00
5:13 PM,78.8,48.2,34,29.82,10.0,WNW,15.0,21.9,N/A,,Clear,300,2013-09-19 22:13:00
5:34 PM,77.0,46.4,34,29.82,10.0,WNW,17.3,20.7,N/A,,Clear,290,2013-09-19 22:34:00
5:54 PM,73.4,48.2,41,29.82,10.0,WNW,19.6,25.3,N/A,,Clear,290,2013-09-19 22:54:00
6:13 PM,71.6,48.2,43,29.83,10.0,WNW,15.0,24.2,N/A,,Clear,290,2013-09-19 23:13:00
6:34 PM,71.6,50.0,46,29.84,10.0,West,16.1,21.9,N/A,,Clear,280,2013-09-19 23:34:00
6:54 PM,69.8,50.0,49,29.85,10.0,WNW,11.5,-,N/A,,Clear,290,2013-09-19 23:54:00
7:13 PM,69.8,50.0,49,29.85,10.0,WNW,8.1,-,N/A,,Clear,290,2013-09-20 00:13:00
7:34 PM,68.0,51.8,56,29.85,10.0,WNW,5.8,-,N/A,,Clear,290,2013-09-20 00:34:00
7:54 PM,68.0,51.8,56,29.86,10.0,WNW,15.0,23.0,N/A,,Clear,300,2013-09-20 00:54:00
8:13 PM,66.2,51.8,60,29.87,10.0,WNW,13.8,-,N/A,,Clear,300,2013-09-20 01:13:00
8:34 PM,66.2,51.8,60,29.88,10.0,WNW,12.7,18.4,N/A,,Clear,300,2013-09-20 01:34:00
8:54 PM,64.4,51.8,64,29.88,10.0,WNW,12.7,19.6,N/A,,Clear,300,2013-09-20 01:54:00
9:13 PM,64.4,51.8,64,29.88,10.0,NW,12.7,19.6,N/A,,Mostly Cloudy,310,2013-09-20 02:13:00
9:34 PM,64.4,53.6,68,29.87,10.0,NW,16.1,21.9,N/A,,Overcast,310,2013-09-20 02:34:00
9:54 PM,62.6,51.8,68,29.88,10.0,NW,12.7,20.7,N/A,,Mostly Cloudy,310,2013-09-20 02:54:00
10:13 PM,62.6,51.8,68,29.88,10.0,NW,10.4,18.4,N/A,,Mostly Cloudy,310,2013-09-20 03:13:00
10:34 PM,60.8,51.8,72,29.89,10.0,WNW,12.7,18.4,N/A,,Mostly Cloudy,300,2013-09-20 03:34:00
10:53 PM,60.8,51.8,72,29.89,10.0,WNW,9.2,-,N/A,,Scattered Clouds,300,2013-09-20 03:53:00
11:13 PM,60.8,50.0,68,29.90,10.0,WNW,9.2,-,N/A,,Scattered Clouds,290,2013-09-20 04:13:00
11:34 PM,57.2,50.0,77,29.91,10.0,WNW,8.1,-,N/A,,Clear,290,2013-09-20 04:34:00
11:53 PM,57.2,51.8,82,29.91,10.0,West,5.8,-,N/A,,Clear,270,2013-09-20 04:53:00